Weather home | Your neighborhood | Marine | Radar | Hurricane | Almanac

Daily weather history


Statistical History for Tuesday, February 26, 2013

St. Petersburg Airport, FL


  Actual Average Record
Temperature
Mean Temperature -  
Max Temperature 71 °F 85 °F (1962)
Min Temperature 54 °F 34 °F (1967)
Cooling Degree Days    
Growing Degree Days 20 (Base - )  
Moisture
Dew Point   
Average Humidity    
Maximum Humidity    
Minimum Humidity    
Precipitation
Precipitation - - ()
Wind
Wind Speed   
Max Wind Speed   
Max Gust Speed   
Visibility   
Events   
Averages and records for this station are not official NWS values.
Key: T is trace of precipitation, MM is missing value
Source: NWS Daily Summary
Seasonal Weather Averages
Time(EST)TemperatureDew PointHumidity Sea Level Pressure Visibility Wind DirectionWind SpeedGust SpeedPrecipitationEventsConditions
12:53 AM 73.0 °F 66.9 °F 81% 29.78 in 8.0 miles SSE 8.1 mph - N/A   Scattered Clouds
1:53 AM 72.0 °F 68.0 °F 87% 29.78 in 8.0 miles SSE 9.2 mph - N/A   Scattered Clouds
2:53 AM 72.0 °F 69.1 °F 91% 29.75 in 7.0 miles SSE 10.4 mph - N/A   Mostly Cloudy
3:53 AM 73.0 °F 69.1 °F 87% 29.72 in 7.0 miles SSE 11.5 mph - N/A   Mostly Cloudy
4:53 AM 73.0 °F 69.1 °F 87% 29.75 in 8.0 miles SSE 8.1 mph - N/A   Overcast
5:53 AM 75.0 °F 70.0 °F 84% 29.75 in 10.0 miles South 15.0 mph 21.9 mph 0.00 in   Overcast
6:53 AM 75.0 °F 70.0 °F 84% 29.74 in 10.0 miles South 19.6 mph 26.5 mph N/A   Overcast
7:24 AM 75.2 °F 69.8 °F 83% 29.74 in 9.0 miles South 18.4 mph 29.9 mph N/A   Mostly Cloudy
7:38 AM 75.2 °F 71.6 °F 89% 29.73 in 9.0 miles South 23.0 mph 29.9 mph N/A   Mostly Cloudy
7:53 AM 75.9 °F 71.1 °F 85% 29.74 in 8.0 miles South 20.7 mph 28.8 mph N/A   Scattered Clouds
8:53 AM 75.9 °F 70.0 °F 82% 29.77 in 9.0 miles South 19.6 mph 29.9 mph N/A   Overcast
9:53 AM 75.0 °F 71.1 °F 87% 29.81 in 8.0 miles South 19.6 mph 28.8 mph 0.02 in   Overcast
10:15 AM 73.4 °F 71.6 °F 94% 29.81 in 2.0 miles South 17.3 mph 26.5 mph 0.03 in Rain Rain
10:25 AM 73.4 °F 71.6 °F 94% 29.81 in 5.0 miles South 16.1 mph 21.9 mph 0.04 in Rain Light Rain
10:32 AM 73.4 °F 71.6 °F 94% 29.80 in 2.0 miles South 16.1 mph 26.5 mph 0.09 in Rain Rain
10:38 AM 73.4 °F 71.6 °F 94% 29.82 in 2.0 miles SW 24.2 mph 33.4 mph 0.22 in Rain Heavy Rain
10:49 AM 71.6 °F 68.0 °F 88% 29.83 in 5.0 miles WSW 16.1 mph 25.3 mph 0.32 in Rain Light Rain
10:53 AM 72.0 °F 68.0 °F 87% 29.83 in 7.0 miles WSW 15.0 mph - 0.32 in Rain Light Rain
11:00 AM 71.6 °F 68.0 °F 88% 29.84 in 7.0 miles SW 13.8 mph - 0.00 in Rain Light Rain
11:36 AM 69.8 °F 64.4 °F 83% 29.85 in 5.0 miles WSW 8.1 mph - 0.04 in Rain Light Rain
11:46 AM 68.0 °F 64.4 °F 88% 29.85 in 4.0 miles WSW 8.1 mph - 0.05 in Rain Light Rain
11:53 AM 69.1 °F 64.9 °F 87% 29.85 in 3.0 miles SW 6.9 mph - 0.06 in Rain Light Rain
12:53 PM 70.0 °F 64.9 °F 84% 29.81 in 10.0 miles South 6.9 mph - 0.00 in   Overcast
1:53 PM 75.0 °F 66.9 °F 76% 29.80 in 10.0 miles SW 10.4 mph - N/A   Scattered Clouds
2:12 PM 75.2 °F 66.2 °F 73% 29.80 in 10.0 miles SW 15.0 mph - N/A   Mostly Cloudy
2:33 PM 75.2 °F 64.4 °F 69% 29.81 in 10.0 miles WSW 15.0 mph - N/A   Mostly Cloudy
2:53 PM 75.0 °F 63.0 °F 66% 29.81 in 10.0 miles WSW 11.5 mph - N/A   Mostly Cloudy
3:46 PM 73.4 °F 62.6 °F 69% 29.80 in 10.0 miles WSW 10.4 mph - N/A   Mostly Cloudy
3:53 PM 75.0 °F 61.0 °F 62% 29.81 in 10.0 miles West 10.4 mph - N/A   Overcast
4:53 PM 72.0 °F 60.1 °F 66% 29.82 in 10.0 miles West 9.2 mph - N/A   Overcast
5:53 PM 71.1 °F 61.0 °F 70% 29.82 in 10.0 miles WSW 8.1 mph - N/A   Scattered Clouds
6:53 PM 70.0 °F 63.0 °F 78% 29.84 in 10.0 miles SW 9.2 mph - N/A   Scattered Clouds
7:53 PM 69.1 °F 62.1 °F 78% 29.86 in 10.0 miles WSW 8.1 mph - N/A   Clear
8:53 PM 68.0 °F 60.1 °F 76% 29.87 in 10.0 miles West 9.2 mph - N/A   Clear
9:53 PM 66.9 °F 61.0 °F 81% 29.88 in 10.0 miles West 6.9 mph - N/A   Clear
10:29 PM 66.2 °F 60.8 °F 83% 29.90 in 10.0 miles WSW 5.8 mph - N/A   Mostly Cloudy
10:53 PM 66.9 °F 61.0 °F 81% 29.91 in 10.0 miles West 8.1 mph - N/A   Overcast
11:23 PM 66.2 °F 60.8 °F 83% 29.90 in 10.0 miles West 5.8 mph - N/A   Scattered Clouds
11:49 PM 66.2 °F 59.0 °F 78% 29.91 in 10.0 miles West 6.9 mph - N/A   Mostly Cloudy
11:53 PM 66.0 °F 59.0 °F 78% 29.90 in 10.0 miles West 5.8 mph - N/A   Mostly Cloudy
ADVERTISEMENT
Enter city or zip code to search weather conditions:


  • 490 First Avenue South
  • St. Petersburg, FL 33701
  • 727-893-8111